Hourly Weather Kivach

Today, 30 July, Friday

Time Temperature Precipitation Wind Pressure Humidity
00:00 +14°C° 0.1 mm 0 mps 744 mmHg 97%
01:00 +14°C° 0.1 mm 0 mps 744 mmHg 98%
02:00 +14°C° 0.1 mm 0 mps 744 mmHg 98%
03:00 +14°C° 0 mm 0 mps 744 mmHg 97%
04:00 +15°C° 0 mm 1 mps 744 mmHg 97%
05:00 +15°C° 0 mm 1 mps 744 mmHg 97%
06:00 +17°C° 0 mm 2 mps 744 mmHg 91%
07:00 +18°C° 0 mm 2 mps 744 mmHg 85%
08:00 +20°C° 0 mm 3 mps 744 mmHg 79%
09:00 +21°C° 0 mm 3 mps 744 mmHg 69%
10:00 +22°C° 0 mm 4 mps 744 mmHg 58%
11:00 +23°C° 0 mm 4 mps 744 mmHg 48%
12:00 +25°C° 0 mm 4 mps 744 mmHg 47%
13:00 +25°C° 0 mm 4 mps 743 mmHg 47%
14:00 +25°C° 0 mm 4 mps 743 mmHg 46%
15:00 +25°C° 0 mm 4 mps 743 mmHg 45%
16:00 +25°C° 0 mm 4 mps 743 mmHg 44%
17:00 +23°C° 0 mm 4 mps 743 mmHg 43%
18:00 +22°C° 0 mm 3 mps 743 mmHg 50%
19:00 +20°C° 0 mm 3 mps 743 mmHg 57%
20:00 +19°C° 0 mm 2 mps 743 mmHg 63%
21:00 +17°C° 0 mm 2 mps 743 mmHg 69%
22:00 +16°C° 0 mm 2 mps 743 mmHg 75%
23:00 +15°C° 0 mm 2 mps 743 mmHg 81%

Tomorrow, 31 July, Saturday

Time Temperature Precipitation Wind Pressure Humidity
00:00 +14°C° 0.1 mm 2 mps 742 mmHg 85%
01:00 +14°C° 0.1 mm 2 mps 742 mmHg 89%
02:00 +13°C° 0.1 mm 2 mps 742 mmHg 93%
03:00 +14°C° 0.1 mm 1 mps 742 mmHg 92%
04:00 +14°C° 0.1 mm 1 mps 742 mmHg 92%
05:00 +14°C° 0.1 mm 1 mps 741 mmHg 92%
06:00 +16°C° 0 mm 1 mps 741 mmHg 86%
07:00 +18°C° 0 mm 1 mps 741 mmHg 80%
08:00 +19°C° 0 mm 1 mps 741 mmHg 74%
09:00 +20°C° 0.2 mm 1 mps 741 mmHg 68%
10:00 +21°C° 0.2 mm 1 mps 741 mmHg 62%
11:00 +23°C° 0.2 mm 2 mps 741 mmHg 55%
12:00 +23°C° 0.3 mm 2 mps 741 mmHg 57%
13:00 +23°C° 0.3 mm 2 mps 741 mmHg 58%
14:00 +23°C° 0.3 mm 2 mps 742 mmHg 59%
15:00 +21°C° 0.4 mm 2 mps 742 mmHg 66%
16:00 +20°C° 0.4 mm 2 mps 742 mmHg 72%
17:00 +20°C° 0.4 mm 2 mps 743 mmHg 79%
18:00 +18°C° 0.1 mm 2 mps 743 mmHg 83%
19:00 +17°C° 0.1 mm 2 mps 743 mmHg 87%
20:00 +16°C° 0.1 mm 2 mps 743 mmHg 92%
21:00 +16°C° 0 mm 2 mps 744 mmHg 93%
22:00 +15°C° 0 mm 2 mps 744 mmHg 95%
23:00 +14°C° 0 mm 2 mps 745 mmHg 97%

Day after tomorrow, 1 August, Sunday

Time Temperature Precipitation Wind Pressure Humidity
00:00 +14°C° 0 mm 2 mps 745 mmHg 97%
01:00 +14°C° 0 mm 2 mps 745 mmHg 97%
02:00 +13°C° 0 mm 2 mps 745 mmHg 97%
03:00 +14°C° 0 mm 2 mps 746 mmHg 96%
04:00 +14°C° 0 mm 2 mps 746 mmHg 94%
05:00 +14°C° 0 mm 1 mps 746 mmHg 93%
06:00 +16°C° 0 mm 2 mps 746 mmHg 85%
07:00 +18°C° 0 mm 2 mps 746 mmHg 78%
08:00 +20°C° 0 mm 2 mps 746 mmHg 70%
09:00 +21°C° 0 mm 2 mps 746 mmHg 62%
10:00 +24°C° 0 mm 2 mps 746 mmHg 55%
11:00 +25°C° 0 mm 2 mps 746 mmHg 47%
12:00 +24°C° 0.1 mm 3 mps 746 mmHg 53%
13:00 +24°C° 0.1 mm 3 mps 746 mmHg 58%
14:00 +22°C° 0.1 mm 4 mps 746 mmHg 64%
15:00 +22°C° 0.2 mm 4 mps 745 mmHg 65%
16:00 +21°C° 0.2 mm 3 mps 745 mmHg 66%
17:00 +21°C° 0.2 mm 3 mps 745 mmHg 66%
18:00 +20°C° 0.2 mm 3 mps 745 mmHg 72%
19:00 +19°C° 0.2 mm 3 mps 745 mmHg 78%
20:00 +18°C° 0.2 mm 3 mps 744 mmHg 83%
21:00 +18°C° 0 mm 3 mps 744 mmHg 85%
22:00 +17°C° 0 mm 3 mps 744 mmHg 87%
23:00 +17°C° 0 mm 4 mps 744 mmHg 88%

2 August, Monday

Time Temperature Precipitation Wind Pressure Humidity
00:00 +17°C° 0.1 mm 4 mps 744 mmHg 88%
01:00 +17°C° 0.1 mm 4 mps 744 mmHg 89%
02:00 +16°C° 0.1 mm 5 mps 744 mmHg 89%
03:00 +16°C° 0.1 mm 5 mps 745 mmHg 88%
04:00 +17°C° 0.1 mm 4 mps 745 mmHg 88%
05:00 +17°C° 0.1 mm 4 mps 745 mmHg 88%
06:00 +17°C° 0 mm 4 mps 746 mmHg 86%
07:00 +17°C° 0 mm 4 mps 746 mmHg 84%
08:00 +18°C° 0 mm 4 mps 746 mmHg 82%
09:00 +18°C° 0 mm 4 mps 746 mmHg 77%
10:00 +19°C° 0 mm 4 mps 746 mmHg 73%
11:00 +20°C° 0 mm 4 mps 746 mmHg 69%
12:00 +20°C° 0.1 mm 4 mps 746 mmHg 66%
13:00 +21°C° 0.1 mm 4 mps 747 mmHg 63%
14:00 +21°C° 0.1 mm 4 mps 747 mmHg 60%
15:00 +21°C° 0.1 mm 3 mps 747 mmHg 61%
16:00 +21°C° 0.1 mm 3 mps 747 mmHg 62%
17:00 +20°C° 0.1 mm 3 mps 747 mmHg 62%
18:00 +19°C° 0 mm 2 mps 747 mmHg 66%
19:00 +18°C° 0 mm 2 mps 746 mmHg 69%
20:00 +18°C° 0 mm 1 mps 746 mmHg 72%
21:00 +18°C° 0 mm 1 mps 746 mmHg 73%
22:00 +16°C° 0 mm 1 mps 746 mmHg 75%
23:00 +16°C° 0 mm 1 mps 746 mmHg 76%

3 August, Tuesday

Time Temperature Precipitation Wind Pressure Humidity
00:00 +15°C° 0 mm 0 mps 746 mmHg 75%
01:00 +15°C° 0 mm 0 mps 746 mmHg 75%
02:00 +15°C° 0 mm 0 mps 746 mmHg 74%
03:00 +15°C° 0 mm 0 mps 745 mmHg 75%
04:00 +16°C° 0 mm 1 mps 745 mmHg 76%
05:00 +16°C° 0 mm 1 mps 745 mmHg 78%
06:00 +16°C° 0.1 mm 1 mps 745 mmHg 78%
07:00 +16°C° 0.1 mm 1 mps 745 mmHg 79%
08:00 +16°C° 0.1 mm 1 mps 745 mmHg 80%
09:00 +16°C° 1.9 mm 1 mps 745 mmHg 85%
10:00 +16°C° 1.9 mm 1 mps 745 mmHg 90%
11:00 +15°C° 1.9 mm 1 mps 745 mmHg 95%
12:00 +15°C° 1.5 mm 2 mps 745 mmHg 95%
13:00 +15°C° 1.5 mm 2 mps 746 mmHg 96%
14:00 +15°C° 1.5 mm 2 mps 746 mmHg 96%
15:00 +15°C° 0.8 mm 2 mps 746 mmHg 96%
16:00 +14°C° 0.8 mm 2 mps 747 mmHg 97%
17:00 +14°C° 0.8 mm 2 mps 747 mmHg 97%
18:00 +14°C° 0.3 mm 2 mps 748 mmHg 97%
19:00 +13°C° 0.3 mm 2 mps 748 mmHg 96%
20:00 +13°C° 0.3 mm 1 mps 749 mmHg 96%
21:00 +13°C° 0 mm 1 mps 749 mmHg 96%
22:00 +13°C° 0 mm 1 mps 749 mmHg 96%
23:00 +13°C° 0 mm 1 mps 749 mmHg 95%

4 August, Wednesday

Time Temperature Precipitation Wind Pressure Humidity
00:00 +13°C° 0 mm 1 mps 750 mmHg 95%
01:00 +13°C° 0 mm 1 mps 750 mmHg 95%
02:00 +13°C° 0 mm 1 mps 751 mmHg 94%
03:00 +12°C° 0 mm 1 mps 751 mmHg 93%
04:00 +12°C° 0 mm 1 mps 752 mmHg 92%
05:00 +12°C° 0 mm 1 mps 752 mmHg 91%
06:00 +13°C° 0 mm 2 mps 753 mmHg 82%
07:00 +14°C° 0 mm 2 mps 753 mmHg 73%
08:00 +16°C° 0 mm 2 mps 753 mmHg 64%
09:00 +17°C° 0 mm 2 mps 754 mmHg 55%
10:00 +18°C° 0 mm 2 mps 754 mmHg 46%
11:00 +20°C° 0 mm 3 mps 754 mmHg 37%
12:00 +20°C° 0 mm 3 mps 754 mmHg 35%
13:00 +21°C° 0 mm 3 mps 755 mmHg 33%
14:00 +22°C° 0 mm 3 mps 755 mmHg 31%
15:00 +21°C° 0 mm 3 mps 755 mmHg 32%
16:00 +21°C° 0 mm 2 mps 755 mmHg 33%
17:00 +21°C° 0 mm 2 mps 755 mmHg 34%
18:00 +19°C° 0 mm 2 mps 756 mmHg 42%
19:00 +17°C° 0 mm 2 mps 756 mmHg 49%
20:00 +15°C° 0 mm 1 mps 756 mmHg 57%
21:00 +14°C° 0 mm 1 mps 757 mmHg 59%
22:00 +13°C° 0 mm 1 mps 757 mmHg 62%
23:00 +12°C° 0 mm 1 mps 758 mmHg 64%
Show more